This demonstration page uses our WeatherBlox Daily Observations layout. Learn more.

Left ArrowRight Arrow

Hourly Observations for May 4, 2020

Temp ( °F °C ) Dew Point ( °F °C ) Humidity (%) Winds ( mph kmh ) Pressure ( in mb ) Visibility ( mi km ) Precip ( " mm )
12:56 am 00:56 Cloudy with Light Rain 63 17.2 46 7.8 54 54 SSE 13 20 29.91 1013 10 16 0.00 0.00
1:56 am 01:56 Cloudy with Light Rain 59 15 50 10 72 72 S 8 13 29.95 1014 10 16 0.02 0.51
2:56 am 02:56 Cloudy with Light Rain 56 13.3 52 11.1 87 87 SE 7 11 29.92 1013 10 16 0.06 1.52
3:56 am 03:56 Cloudy with Light Rain 56 13.3 50 10 81 81 ESE 12 19 29.86 1011 10 16 0.00 0.00
4:56 am 04:56 Cloudy with Rain 54 12.2 51 10.6 90 90 SE 12 19 29.88 1012 7 11 0.16 4.06
5:56 am 05:56 Cloudy with Rain 54 12.2 50 10 87 87 E 3 6 29.91 1013 10 16 0.07 1.78
6:56 am 06:56 Cloudy with Rain 53 11.7 52 11.1 96 96 N 9 15 29.96 1015 9 14 0.21 5.33
7:56 am 07:56 Cloudy with Light Rain 52 11.1 51 10.6 97 97 NE 10 17 29.89 1012 10 16 0.16 4.06
8:56 am 08:56 Mostly Cloudy 53 11.7 51 10.6 93 93 ENE 15 24 29.88 1012 10 16 0.00 0.00
9:56 am 09:56 Mostly Cloudy 57 13.9 50 10 78 78 E 16 26 29.86 1011 10 16 0.00 0.00
10:56 am 10:56 Cloudy 58 14.4 46 7.8 65 65 ESE 22 35 29.87 1011 10 16 0.00 0.00
11:56 am 11:56 Mostly Sunny 62 16.7 47 8.3 58 58 E 20 31 29.88 1012 10 16 0.00 0.00
12:56 pm 12:56 Cloudy 59 15 46 7.8 62 62 ESE 13 20 29.91 1013 10 16 0.00 0.00
1:56 pm 13:56 Cloudy 59 15 44 6.7 58 58 E 7 11 29.91 1013 10 16 0.00 0.00
2:56 pm 14:56 Cloudy 60 15.6 46 7.8 60 60 E 16 26 29.91 1013 10 16 0.00 0.00
3:56 pm 15:56 Cloudy 60 15.6 45 7.2 58 58 ENE 9 15 29.92 1013 10 16 0.00 0.00
4:56 pm 16:56 Cloudy 61 16.1 45 7.2 56 56 VRB 5 7 29.92 1013 10 16 0.00 0.00
5:56 pm 17:56 Mostly Cloudy 61 16.1 46 7.8 58 58 NNE 6 9 29.95 1014 10 16 0.00 0.00
6:56 pm 18:56 Cloudy 56 13.3 50 10 81 81 NW 18 30 29.99 1016 10 16 0.00 0.00
7:56 pm 19:56 Cloudy 54 12.2 49 9.4 83 83 NNW 18 30 30.02 1017 10 16 0.00 0.00
8:56 pm 20:56 Mostly Clear 53 11.7 48 8.9 83 83 NNW 13 20 30.04 1017 10 16 0.00 0.00
9:56 pm 21:56 Partly Cloudy 52 11.1 47 8.3 83 83 NNW 12 19 30.08 1019 10 16 0.00 0.00
10:56 pm 22:56 Clear 49 9.4 43 6.1 80 80 NW 7 11 30.07 1018 10 16 0.00 0.00
11:56 pm 23:56 Clear 46 7.8 42 5.6 86 86 WNW 10 17 30.09 1019 10 16 0.00 0.00

Powered by AerisWeather